Location: Follega
(52.8850°N, 5.7362°E)
Time: 00:19:53
(UTC+00:00)

Cosmos 1110 Rocket - Pass Details

Date: 01 June 2020
Orbit: 752 x 781 km, 74.0° (Epoch: 11 July)

Event Time Altitude Azimuth Distance (km) Brightness Sun altitude
Rises 20:41:35 0° 185° (S) 3,202 6.8 -6.0°
Reaches altitude 10° 20:44:01 10° 180° (S) 2,279 6.0 -6.2°
Maximum altitude 20:48:56 47° 107° (ESE) 993 4.3 -6.7°
Drops below altitude 10° 20:53:53 10° 35° (NE) 2,288 6.7 -7.2°
Sets 20:56:19 0° 30° (NNE) 3,218 7.6 -7.4°
